| time (UTC) | temp F | wind direction | speed MPH | gust MPH | rain 1hr in | rain 24hr in | rain mn in | humidity % | barometer mb |
| 20260509185501 | 68 | 234 | 3.0 | 4.0 | 0.00 | 0.00 | 0.00 | 50 | 1009.7 |
| 20260509184958 | 69 | 267 | 4.0 | 4.0 | 0.00 | 0.00 | 0.00 | 51 | 1009.6 |
| 20260509184456 | 69 | 257 | 3.0 | 6.0 | 0.00 | 0.00 | 0.00 | 50 | 1009.7 |
| 20260509183952 | 67 | 167 | 2.0 | 4.0 | 0.00 | 0.00 | 0.00 | 48 | 1009.8 |
| 20260509183447 | 67 | 294 | 5.0 | 7.0 | 0.00 | 0.00 | 0.00 | 52 | 1010.1 |
| 20260509182943 | 67 | 154 | 4.0 | 8.0 | 0.00 | 0.00 | 0.00 | 51 | 1009.8 |
| 20260509182439 | 68 | 125 | 1.0 | 4.0 | 0.00 | 0.00 | 0.00 | 50 | 1010.0 |
| 20260509181937 | 67 | 17 | 1.0 | 8.0 | 0.00 | 0.00 | 0.00 | 49 | 1010.2 |
| 20260509181435 | 68 | 154 | 3.0 | 3.0 | 0.00 | 0.00 | 0.00 | 52 | 1010.0 |
| 20260509180932 | 67 | 11 | 1.0 | 2.0 | 0.00 | 0.00 | 0.00 | 51 | 1010.3 |
| 20260509180427 | 66 | 265 | 2.0 | 4.0 | 0.00 | 0.00 | 0.00 | 53 | 1010.3 |
| 20260509175924 | 66 | 135 | 2.0 | 7.0 | 0.00 | 0.00 | 0.00 | 55 | 1010.4 |
| 20260509175421 | 66 | 214 | 0.0 | 2.0 | 0.00 | 0.00 | 0.00 | 54 | 1010.4 |
| 20260509174918 | 65 | 177 | 0.0 | 1.0 | 0.00 | 0.00 | 0.00 | 54 | 1010.6 |
| 20260509174414 | 67 | 136 | 1.0 | 4.0 | 0.00 | 0.00 | 0.00 | 56 | 1010.6 |
| 20260509173910 | 66 | 130 | 1.0 | 4.0 | 0.00 | 0.00 | 0.00 | 58 | 1010.3 |
| 20260509173409 | 67 | 202 | 2.0 | 3.0 | 0.00 | 0.00 | 0.00 | 58 | 1010.8 |
| 20260509172906 | 66 | 60 | 1.0 | 1.0 | 0.00 | 0.00 | 0.00 | 57 | 1010.9 |
| 20260509172403 | 64 | 60 | 1.0 | 1.0 | 0.00 | 0.00 | 0.00 | 58 | 1010.9 |
| 20260509171859 | 64 | 60 | 1.0 | 2.0 | 0.00 | 0.00 | 0.00 | 57 | 1010.9 |
| 20260509171355 | 63 | 123 | 1.0 | 3.0 | 0.00 | 0.00 | 0.00 | 58 | 1010.9 |
| 20260509170851 | 63 | 83 | 1.0 | 2.0 | 0.00 | 0.00 | 0.00 | 60 | 1011.2 |
| 20260509170348 | 62 | 120 | 1.0 | 2.0 | 0.00 | 0.00 | 0.00 | 61 | 1011.1 |
| 20260509165848 | 62 | 122 | 3.0 | 3.0 | 0.00 | 0.00 | 0.00 | 63 | 1011.4 |
| 20260509165342 | 61 | 126 | 2.0 | 3.0 | 0.00 | 0.00 | 0.00 | 65 | 1011.4 |
| 20260509164838 | 61 | 118 | 3.0 | 4.0 | 0.00 | 0.00 | 0.00 | 65 | 1011.5 |
| 20260509164335 | 61 | 85 | 3.0 | 7.0 | 0.00 | 0.00 | 0.00 | 64 | 1011.6 |
| 20260509163831 | 61 | 99 | 5.0 | 7.0 | 0.00 | 0.00 | 0.00 | 64 | 1011.5 |
| 20260509163328 | 61 | 98 | 3.0 | 3.0 | 0.00 | 0.00 | 0.00 | 65 | 1011.6 |
| 20260509162828 | 60 | 90 | 3.0 | 4.0 | 0.00 | 0.00 | 0.00 | 65 | 1011.7 |
| 20260509162325 | 60 | 105 | 3.0 | 3.0 | 0.00 | 0.00 | 0.00 | 68 | 1011.8 |
| 20260509161822 | 60 | 107 | 2.0 | 2.0 | 0.00 | 0.00 | 0.00 | 68 | 1011.8 |
| 20260509161319 | 60 | 79 | 2.0 | 3.0 | 0.00 | 0.00 | 0.00 | 68 | 1011.9 |
| 20260509160814 | 61 | 98 | 4.0 | 6.0 | 0.00 | 0.00 | 0.00 | 68 | 1011.7 |
| 20260509160310 | 61 | 82 | 2.0 | 4.0 | 0.00 | 0.00 | 0.00 | 68 | 1011.6 |
| 20260509155806 | 61 | 103 | 3.0 | 6.0 | 0.00 | 0.00 | 0.00 | 64 | 1011.5 |
| 20260509155306 | 62 | 131 | 2.0 | 3.0 | 0.00 | 0.00 | 0.00 | 63 | 1011.5 |
| 20260509154758 | 61 | 98 | 0.0 | 1.0 | 0.00 | 0.00 | 0.00 | 66 | 1011.7 |
| 20260509154256 | 60 | 129 | 2.0 | 3.0 | 0.00 | 0.00 | 0.00 | 67 | 1011.5 |
| 20260509153753 | 60 | 114 | 4.0 | 7.0 | 0.00 | 0.00 | 0.00 | 68 | 1011.6 |
| 20260509153248 | 60 | 75 | 3.0 | 3.0 | 0.00 | 0.00 | 0.00 | 67 | 1011.9 |
| 20260509152745 | 60 | 80 | 1.0 | 2.0 | 0.00 | 0.00 | 0.00 | 67 | 1011.7 |
| 20260509152242 | 60 | 81 | 2.0 | 2.0 | 0.00 | 0.00 | 0.00 | 66 | 1011.8 |
| 20260509151739 | 60 | 117 | 2.0 | 2.0 | 0.00 | 0.00 | 0.00 | 66 | 1011.8 |
| 20260509151235 | 60 | 151 | 2.0 | 4.0 | 0.00 | 0.00 | 0.00 | 66 | 1011.8 |
| 20260509150733 | 62 | 118 | 2.0 | 6.0 | 0.00 | 0.00 | 0.00 | 63 | 1011.7 |
| 20260509150232 | 62 | 111 | 2.0 | 6.0 | 0.00 | 0.00 | 0.00 | 63 | 1011.8 |
| 20260509145729 | 62 | 99 | 2.0 | 2.0 | 0.00 | 0.00 | 0.00 | 62 | 1011.7 |
| 20260509145228 | 61 | 109 | 1.0 | 4.0 | 0.00 | 0.00 | 0.00 | 66 | 1011.8 |
| 20260509144725 | 62 | 122 | 4.0 | 6.0 | 0.00 | 0.00 | 0.00 | 64 | 1011.7 |
| 20260509144222 | 62 | 138 | 6.0 | 8.0 | 0.00 | 0.00 | 0.00 | 66 | 1011.7 |
| 20260509143719 | 60 | 90 | 0.0 | 3.0 | 0.00 | 0.00 | 0.00 | 68 | 1012.0 |
| 20260509143217 | 60 | 81 | 0.0 | 2.0 | 0.00 | 0.00 | 0.00 | 67 | 1011.6 |
| 20260509142712 | 60 | 44 | 2.0 | 3.0 | 0.00 | 0.00 | 0.00 | 69 | 1011.8 |
| 20260509142209 | 59 | 103 | 2.0 | 4.0 | 0.00 | 0.00 | 0.00 | 68 | 1011.9 |
| 20260509141704 | 58 | 125 | 2.0 | 3.0 | 0.00 | 0.00 | 0.00 | 70 | 1011.9 |
| 20260509141202 | 60 | 123 | 1.0 | 1.0 | 0.00 | 0.00 | 0.00 | 67 | 1012.2 |
| 20260509140658 | 59 | 123 | 0.0 | 1.0 | 0.00 | 0.00 | 0.00 | 66 | 1012.0 |
| 20260509140156 | 59 | 123 | 2.0 | 3.0 | 0.00 | 0.00 | 0.00 | 66 | 1012.2 |
| 20260509135653 | 58 | 100 | 1.0 | 1.0 | 0.00 | 0.00 | 0.00 | 69 | 1012.4 |
| 20260509135151 | 56 | 125 | 2.0 | 2.0 | 0.00 | 0.00 | 0.00 | 72 | 1012.3 |
| 20260509134647 | 56 | 80 | 2.0 | 3.0 | 0.00 | 0.00 | 0.00 | 69 | 1012.3 |
| 20260509134145 | 56 | 41 | 0.0 | 0.0 | 0.00 | 0.00 | 0.00 | 73 | 1012.4 |
| 20260509133642 | 55 | 4 | 0.0 | 0.0 | 0.00 | 0.00 | 0.00 | 71 | 1012.2 |
| 20260509133139 | 55 | 4 | 0.0 | 1.0 | 0.00 | 0.00 | 0.00 | 74 | 1012.0 |
| 20260509132637 | 55 | 11 | 1.0 | 2.0 | 0.00 | 0.00 | 0.00 | 72 | 1011.9 |
| 20260509132135 | 55 | 42 | 1.0 | 1.0 | 0.00 | 0.00 | 0.00 | 73 | 1012.0 |
| 20260509131631 | 55 | 344 | 3.0 | 4.0 | 0.00 | 0.00 | 0.00 | 72 | 1012.0 |
| 20260509131128 | 55 | 74 | 0.0 | 1.0 | 0.00 | 0.00 | 0.00 | 74 | 1011.9 |
| 20260509130624 | 54 | 49 | 0.0 | 2.0 | 0.00 | 0.00 | 0.00 | 74 | 1011.8 |
| 20260509130121 | 54 | 49 | 1.0 | 2.0 | 0.00 | 0.00 | 0.00 | 75 | 1011.8 |
| 20260509125617 | 54 | 48 | 1.0 | 2.0 | 0.00 | 0.00 | 0.00 | 76 | 1011.7 |
| 20260509125114 | 54 | 109 | 1.0 | 2.0 | 0.00 | 0.00 | 0.00 | 79 | 1011.9 |
| 20260509124610 | 54 | 110 | 0.0 | 1.0 | 0.00 | 0.00 | 0.00 | 75 | 1011.9 |
| 20260509124108 | 54 | 110 | 1.0 | 2.0 | 0.00 | 0.00 | 0.00 | 77 | 1012.2 |
| 20260509123606 | 54 | 26 | 0.0 | 1.0 | 0.00 | 0.00 | 0.00 | 75 | 1012.3 |
| 20260509123102 | 55 | 26 | 0.0 | 0.0 | 0.00 | 0.00 | 0.00 | 73 | 1012.2 |
| 20260509122558 | 55 | 26 | 0.0 | 0.0 | 0.00 | 0.00 | 0.00 | 69 | 1011.9 |
| 20260509122056 | 55 | 26 | 0.0 | 0.0 | 0.00 | 0.00 | 0.00 | 71 | 1012.2 |
| 20260509121552 | 55 | 26 | 0.0 | 0.0 | 0.00 | 0.00 | 0.00 | 67 | 1012.0 |
| 20260509121049 | 55 | 26 | 0.0 | 0.0 | 0.00 | 0.00 | 0.00 | 66 | 1012.3 |
| 20260509120547 | 54 | 353 | 0.0 | 1.0 | 0.00 | 0.00 | 0.00 | 68 | 1012.0 |
| 20260509120046 | 54 | 353 | 0.0 | 0.0 | 0.00 | 0.00 | 0.00 | 70 | 1011.9 |
| 20260509115542 | 53 | 353 | 0.0 | 0.0 | 0.00 | 0.00 | 0.00 | 74 | 1012.0 |
| 20260509115040 | 53 | 353 | 0.0 | 0.0 | 0.00 | 0.00 | 0.00 | 71 | 1012.0 |
| 20260509114538 | 54 | 353 | 0.0 | 0.0 | 0.00 | 0.00 | 0.00 | 68 | 1012.3 |
| 20260509114037 | 53 | 353 | 0.0 | 1.0 | 0.00 | 0.00 | 0.00 | 68 | 1012.0 |
| 20260509113534 | 53 | 352 | 0.0 | 0.0 | 0.00 | 0.00 | 0.00 | 70 | 1012.0 |
| 20260509113032 | 54 | 352 | 0.0 | 0.0 | 0.00 | 0.00 | 0.00 | 65 | 1011.8 |
| 20260509112528 | 54 | 352 | 0.0 | 0.0 | 0.00 | 0.00 | 0.00 | 67 | 1011.7 |
| 20260509112025 | 54 | 352 | 0.0 | 0.0 | 0.00 | 0.00 | 0.00 | 67 | 1011.7 |
| 20260509111522 | 53 | 352 | 0.0 | 0.0 | 0.00 | 0.00 | 0.00 | 65 | 1011.7 |
| 20260509111019 | 53 | 352 | 0.0 | 0.0 | 0.00 | 0.00 | 0.00 | 65 | 1011.7 |
| 20260509110516 | 53 | 79 | 0.0 | 0.0 | 0.00 | 0.00 | 0.00 | 71 | 1011.7 |
| 20260509110013 | 53 | 79 | 0.0 | 0.0 | 0.00 | 0.00 | 0.00 | 71 | 1011.7 |
| 20260509105512 | 53 | 79 | 0.0 | 0.0 | 0.00 | 0.00 | 0.00 | 71 | 1011.4 |
| 20260509105009 | 53 | 79 | 0.0 | 1.0 | 0.00 | 0.00 | 0.00 | 72 | 1011.6 |
| 20260509104505 | 53 | 79 | 0.0 | 0.0 | 0.00 | 0.00 | 0.00 | 66 | 1011.6 |
| 20260509104002 | 53 | 79 | 0.0 | 0.0 | 0.00 | 0.00 | 0.00 | 67 | 1011.4 |
| 20260509103500 | 53 | 259 | 0.0 | 1.0 | 0.00 | 0.00 | 0.00 | 67 | 1011.4 |
| 20260509102958 | 53 | 259 | 0.0 | 1.0 | 0.00 | 0.00 | 0.00 | 67 | 1011.3 |
| 20260509102455 | 53 | 258 | 1.0 | 1.0 | 0.00 | 0.00 | 0.00 | 66 | 1011.2 |
| 20260509101951 | 53 | 258 | 1.0 | 2.0 | 0.00 | 0.00 | 0.00 | 66 | 1011.1 |
| 20260509101448 | 52 | 258 | 1.0 | 2.0 | 0.00 | 0.00 | 0.00 | 70 | 1011.1 |
| 20260509100945 | 51 | 259 | 1.0 | 1.0 | 0.00 | 0.00 | 0.00 | 74 | 1011.1 |
| 20260509100442 | 52 | 258 | 1.0 | 1.0 | 0.00 | 0.00 | 0.00 | 75 | 1011.1 |
| 20260509095939 | 54 | 258 | 2.0 | 2.0 | 0.00 | 0.00 | 0.00 | 68 | 1011.1 |
| 20260509095436 | 0 | 0.0 | 0.0 | 0.00 | 0.00 | 0.00 | 1011.0 | ||
| 20260509094933 | 0 | 0.0 | 0.0 | 0.00 | 0.00 | 0.00 | 1011.2 | ||
| 20260509094429 | 0 | 0.0 | 0.0 | 0.00 | 0.00 | 0.00 | 1011.3 | ||
| 20260509093927 | 0 | 0.0 | 0.0 | 0.00 | 0.00 | 0.00 | 1011.2 | ||
| 20260509093424 | 0 | 0.0 | 0.0 | 0.00 | 0.00 | 0.00 | 1011.2 | ||
| 20260509092923 | 54 | 273 | 1.0 | 1.0 | 0.00 | 0.00 | 0.00 | 65 | 1011.4 |
| 20260509092420 | 54 | 273 | 1.0 | 1.0 | 0.00 | 0.00 | 0.00 | 65 | 1011.3 |
| 20260509091919 | 53 | 280 | 1.0 | 1.0 | 0.00 | 0.00 | 0.00 | 67 | 1011.3 |
| 20260509091415 | 53 | 280 | 1.0 | 1.0 | 0.00 | 0.00 | 0.00 | 67 | 1011.2 |
| 20260509090912 | 53 | 280 | 1.0 | 1.0 | 0.00 | 0.00 | 0.00 | 67 | 1011.2 |
| 20260509090409 | 53 | 287 | 0.0 | 1.0 | 0.00 | 0.00 | 0.00 | 66 | 1011.3 |
| 20260509085907 | 53 | 286 | 2.0 | 2.0 | 0.00 | 0.00 | 0.00 | 66 | 1011.2 |
| 20260509085404 | 53 | 259 | 1.0 | 1.0 | 0.00 | 0.00 | 0.00 | 68 | 1011.3 |
| 20260509084900 | 52 | 259 | 0.0 | 1.0 | 0.00 | 0.00 | 0.00 | 69 | 1011.4 |
| 20260509084357 | 52 | 259 | 0.0 | 1.0 | 0.00 | 0.00 | 0.00 | 69 | 1011.5 |
| 20260509083855 | 53 | 259 | 0.0 | 1.0 | 0.00 | 0.00 | 0.00 | 68 | 1011.4 |
| 20260509083351 | 53 | 259 | 1.0 | 1.0 | 0.00 | 0.00 | 0.00 | 66 | 1011.4 |
| 20260509082848 | 0 | 0.0 | 0.0 | 0.00 | 0.00 | 0.00 | 1011.4 | ||
| 20260509082345 | 0 | 0.0 | 0.0 | 0.00 | 0.00 | 0.00 | 1011.4 | ||
| 20260509081842 | 53 | 259 | 0.0 | 0.0 | 0.00 | 0.00 | 0.00 | 66 | 1011.5 |
| 20260509081339 | 53 | 259 | 0.0 | 0.0 | 0.00 | 0.00 | 0.00 | 66 | 1011.4 |
| 20260509080837 | 53 | 259 | 0.0 | 0.0 | 0.00 | 0.00 | 0.00 | 64 | 1011.5 |
| 20260509080335 | 0 | 0.0 | 0.0 | 0.00 | 0.00 | 0.00 | 1011.5 | ||
| 20260509075833 | 0 | 0.0 | 0.0 | 0.00 | 0.00 | 0.00 | 1011.8 | ||
| 20260509075330 | 0 | 0.0 | 0.0 | 0.00 | 0.00 | 0.00 | 1011.6 | ||
| 20260509074827 | 0 | 0.0 | 0.0 | 0.00 | 0.00 | 0.00 | 1011.7 | ||
| 20260509074324 | 0 | 0.0 | 0.0 | 0.00 | 0.00 | 0.00 | 1011.7 | ||
| 20260509073820 | 0 | 0.0 | 0.0 | 0.00 | 0.00 | 0.00 | 1011.8 | ||
| 20260509073317 | 0 | 0.0 | 0.0 | 0.00 | 0.00 | 0.00 | 1012.0 | ||
| 20260509072814 | 0 | 0.0 | 0.0 | 0.00 | 0.00 | 0.00 | 1011.8 | ||
| 20260509072310 | 0 | 0.0 | 0.0 | 0.00 | 0.00 | 0.00 | 1011.8 | ||
| 20260509071807 | 0 | 0.0 | 0.0 | 0.00 | 0.00 | 0.00 | 1011.8 | ||
| 20260509071304 | 0 | 0.0 | 0.0 | 0.00 | 0.00 | 0.00 | 1011.7 | ||
| 20260509070801 | 0 | 0.0 | 0.0 | 0.00 | 0.00 | 0.00 | 1011.7 | ||
| 20260509070257 | 53 | 273 | 2.0 | 3.0 | 0.00 | 0.00 | 0.00 | 67 | 1011.7 |
| 20260509065754 | 53 | 273 | 2.0 | 3.0 | 0.00 | 0.00 | 0.00 | 67 | 1011.9 |
| 20260509065250 | 0 | 0.0 | 0.0 | 0.00 | 0.00 | 0.00 | 1011.8 | ||
| 20260509064746 | 0 | 0.0 | 0.0 | 0.00 | 0.00 | 0.00 | 1011.8 | ||
| 20260509064244 | 0 | 0.0 | 0.0 | 0.00 | 0.00 | 0.00 | 1011.9 | ||
| 20260509063741 | 0 | 0.0 | 0.0 | 0.00 | 0.00 | 0.00 | 1012.2 | ||
| 20260509063237 | 53 | 251 | 2.0 | 2.0 | 0.00 | 0.00 | 0.00 | 66 | 1012.2 |
| 20260509062735 | 53 | 251 | 2.0 | 2.0 | 0.00 | 0.00 | 0.00 | 66 | 1011.9 |
| 20260509062232 | 53 | 251 | 1.0 | 1.0 | 0.00 | 0.00 | 0.00 | 66 | 1012.3 |
| 20260509061729 | 53 | 251 | 1.0 | 1.0 | 0.00 | 0.00 | 0.00 | 66 | 1012.2 |
| 20260509061227 | 53 | 251 | 1.0 | 2.0 | 0.00 | 0.00 | 0.00 | 63 | 1012.3 |
| 20260509060724 | 0 | 0.0 | 0.0 | 0.00 | 0.00 | 0.00 | 1012.3 | ||
| 20260509060220 | 0 | 0.0 | 0.0 | 0.00 | 0.00 | 0.00 | 1012.2 | ||
| 20260509055716 | 0 | 0.0 | 0.0 | 0.00 | 0.00 | 0.00 | 1012.3 | ||
| 20260509055212 | 0 | 0.0 | 0.0 | 0.00 | 0.00 | 0.00 | 1012.3 | ||
| 20260509054709 | 54 | 251 | 2.0 | 2.0 | 0.00 | 0.00 | 0.00 | 64 | 1012.5 |
| 20260509054206 | 54 | 251 | 2.0 | 2.0 | 0.00 | 0.00 | 0.00 | 64 | 1012.6 |
| 20260509053704 | 54 | 257 | 2.0 | 2.0 | 0.00 | 0.00 | 0.00 | 63 | 1012.3 |
| 20260509053201 | 0 | 0.0 | 0.0 | 0.00 | 0.00 | 0.00 | 1012.2 | ||
| 20260509052659 | 0 | 0.0 | 0.0 | 0.00 | 0.00 | 0.00 | 1012.4 | ||
| 20260509052156 | 53 | 271 | 0.0 | 1.0 | 0.00 | 0.00 | 0.00 | 66 | 1012.4 |
| 20260509051654 | 53 | 271 | 0.0 | 1.0 | 0.00 | 0.00 | 0.00 | 66 | 1012.5 |
| 20260509051151 | 54 | 271 | 2.0 | 2.0 | 0.00 | 0.00 | 0.00 | 63 | 1012.5 |
| 20260509050648 | 53 | 309 | 1.0 | 2.0 | 0.00 | 0.00 | 0.00 | 66 | 1012.5 |
| 20260509050144 | 53 | 309 | 1.0 | 2.0 | 0.00 | 0.00 | 0.00 | 66 | 1012.5 |
| 20260509045642 | 53 | 268 | 2.0 | 2.0 | 0.00 | 0.00 | 0.00 | 66 | 1012.4 |
| 20260509045138 | 53 | 232 | 3.0 | 4.0 | 0.00 | 0.00 | 0.00 | 64 | 1012.4 |
| 20260509044636 | 52 | 259 | 2.0 | 2.0 | 0.00 | 0.00 | 0.00 | 67 | 1012.5 |
| 20260509044133 | 52 | 259 | 2.0 | 2.0 | 0.00 | 0.00 | 0.00 | 67 | 1012.3 |
| 20260509043629 | 53 | 261 | 1.0 | 1.0 | 0.00 | 0.00 | 0.00 | 68 | 1012.2 |
| 20260509043125 | 53 | 261 | 1.0 | 2.0 | 0.00 | 0.00 | 0.00 | 67 | 1012.6 |
| 20260509042622 | 0 | 0.0 | 0.0 | 0.00 | 0.00 | 0.00 | 1012.3 | ||
| 20260509042118 | 53 | 266 | 3.0 | 3.0 | 0.00 | 0.00 | 0.00 | 67 | 1012.3 |
| 20260509041615 | 53 | 266 | 3.0 | 3.0 | 0.00 | 0.00 | 0.00 | 67 | 1012.5 |
| 20260509041112 | 52 | 274 | 2.0 | 3.0 | 0.00 | 0.00 | 0.00 | 68 | 1012.4 |
| 20260509040611 | 52 | 274 | 2.0 | 3.0 | 0.00 | 0.00 | 0.00 | 68 | 1012.5 |
| 20260509040107 | 52 | 246 | 1.0 | 2.0 | 0.00 | 0.00 | 0.00 | 68 | 1012.5 |
| 20260509035604 | 53 | 245 | 1.0 | 2.0 | 0.00 | 0.00 | 0.00 | 68 | 1012.4 |
| 20260509035100 | 53 | 248 | 0.0 | 1.0 | 0.00 | 0.00 | 0.00 | 67 | 1012.4 |
| 20260509034559 | 55 | 278 | 4.0 | 4.0 | 0.00 | 0.00 | 0.00 | 60 | 1012.6 |
| 20260509034055 | 55 | 278 | 4.0 | 4.0 | 0.00 | 0.00 | 0.00 | 60 | 1012.5 |
| 20260509033552 | 54 | 319 | 2.0 | 3.0 | 0.00 | 0.00 | 0.00 | 62 | 1012.4 |
| 20260509033049 | 53 | 324 | 1.0 | 1.0 | 0.00 | 0.00 | 0.00 | 67 | 1012.4 |
| 20260509032547 | 53 | 324 | 1.0 | 1.0 | 0.00 | 0.00 | 0.00 | 67 | 1012.4 |
| 20260509032043 | 54 | 240 | 1.0 | 2.0 | 0.00 | 0.00 | 0.00 | 64 | 1012.5 |
| 20260509031541 | 54 | 301 | 1.0 | 2.0 | 0.00 | 0.00 | 0.00 | 65 | 1012.7 |
| 20260509031038 | 54 | 300 | 1.0 | 1.0 | 0.00 | 0.00 | 0.00 | 65 | 1012.5 |
| 20260509030537 | 53 | 260 | 1.0 | 2.0 | 0.00 | 0.00 | 0.00 | 64 | 1012.6 |
| 20260509030033 | 53 | 297 | 0.0 | 1.0 | 0.00 | 0.00 | 0.00 | 70 | 1012.7 |
| 20260509025529 | 53 | 170 | 1.0 | 2.0 | 0.00 | 0.00 | 0.00 | 69 | 1012.6 |
| 20260509025025 | 54 | 170 | 0.0 | 1.0 | 0.00 | 0.00 | 0.00 | 66 | 1012.5 |
| 20260509024521 | 55 | 170 | 0.0 | 0.0 | 0.00 | 0.00 | 0.00 | 61 | 1012.7 |
| 20260509024017 | 54 | 170 | 2.0 | 2.0 | 0.00 | 0.00 | 0.00 | 66 | 1012.8 |
| 20260509023515 | 53 | 170 | 1.0 | 2.0 | 0.00 | 0.00 | 0.00 | 70 | 1012.7 |
| 20260509023012 | 53 | 170 | 1.0 | 1.0 | 0.00 | 0.00 | 0.00 | 70 | 1012.8 |
| 20260509022508 | 56 | 170 | 2.0 | 2.0 | 0.00 | 0.00 | 0.00 | 61 | 1012.8 |
| 20260509022006 | 55 | 320 | 1.0 | 1.0 | 0.00 | 0.00 | 0.00 | 60 | 1012.9 |
| 20260509021503 | 55 | 300 | 1.0 | 1.0 | 0.00 | 0.00 | 0.00 | 58 | 1012.9 |
| 20260509020959 | 55 | 296 | 1.0 | 2.0 | 0.00 | 0.00 | 0.00 | 59 | 1012.8 |
| 20260509020458 | 55 | 259 | 0.0 | 0.0 | 0.00 | 0.00 | 0.00 | 60 | 1012.9 |
| 20260509015954 | 55 | 259 | 0.0 | 1.0 | 0.00 | 0.00 | 0.00 | 61 | 1012.4 |
| 20260509015453 | 55 | 259 | 0.0 | 1.0 | 0.00 | 0.00 | 0.00 | 59 | 1012.7 |
| 20260509014950 | 56 | 259 | 0.0 | 1.0 | 0.00 | 0.00 | 0.00 | 57 | 1012.6 |
| 20260509014447 | 57 | 259 | 1.0 | 2.0 | 0.00 | 0.00 | 0.00 | 55 | 1012.7 |
| 20260509013943 | 56 | 291 | 2.0 | 3.0 | 0.00 | 0.00 | 0.00 | 55 | 1012.8 |
| 20260509013440 | 56 | 267 | 1.0 | 1.0 | 0.00 | 0.00 | 0.00 | 55 | 1012.6 |
| 20260509012936 | 56 | 267 | 2.0 | 2.0 | 0.00 | 0.00 | 0.00 | 56 | 1012.5 |
| 20260509012432 | 56 | 267 | 1.0 | 1.0 | 0.00 | 0.00 | 0.00 | 57 | 1012.5 |
| 20260509011929 | 56 | 289 | 1.0 | 1.0 | 0.00 | 0.00 | 0.00 | 56 | 1012.5 |
| 20260509011427 | 56 | 31 | 0.0 | 1.0 | 0.00 | 0.00 | 0.00 | 57 | 1012.4 |
| 20260509010925 | 56 | 5 | 4.0 | 4.0 | 0.00 | 0.00 | 0.00 | 56 | 1012.4 |
| 20260509010422 | 56 | 343 | 3.0 | 4.0 | 0.00 | 0.00 | 0.00 | 57 | 1012.3 |
| 20260509005918 | 57 | 344 | 2.0 | 2.0 | 0.00 | 0.00 | 0.00 | 54 | 1012.4 |
| 20260509005417 | 57 | 343 | 0.0 | 0.0 | 0.00 | 0.00 | 0.00 | 55 | 1012.4 |
| 20260509004917 | 58 | 343 | 0.0 | 0.0 | 0.00 | 0.00 | 0.00 | 54 | 1012.5 |
| 20260509004413 | 58 | 343 | 0.0 | 0.0 | 0.00 | 0.00 | 0.00 | 52 | 1012.3 |
| 20260509003911 | 58 | 343 | 0.0 | 0.0 | 0.00 | 0.00 | 0.00 | 52 | 1012.3 |
| 20260509003409 | 58 | 343 | 0.0 | 1.0 | 0.00 | 0.00 | 0.00 | 53 | 1012.4 |
| 20260509002905 | 58 | 344 | 3.0 | 3.0 | 0.00 | 0.00 | 0.00 | 53 | 1012.4 |
| 20260509002403 | 59 | 335 | 0.0 | 1.0 | 0.00 | 0.00 | 0.00 | 52 | 1012.5 |
| 20260509001901 | 60 | 21 | 2.0 | 2.0 | 0.00 | 0.00 | 0.00 | 50 | 1012.5 |
| 20260509001356 | 0 | 0.0 | 0.0 | 0.00 | 0.00 | 0.00 | 1012.3 | ||
| 20260509000854 | 0 | 0.0 | 0.0 | 0.00 | 0.00 | 0.00 | 1012.2 | ||
| 20260509000352 | 0 | 0.0 | 0.0 | 0.00 | 0.00 | 0.00 | 1012.2 | ||
| 20260508235848 | 64 | 19 | 2.0 | 2.0 | 0.00 | 0.00 | 0.00 | 44 | 1012.0 |
| 20260508235345 | 64 | 19 | 2.0 | 2.0 | 0.00 | 0.00 | 0.00 | 44 | 1011.8 |
| 20260508234842 | 64 | 19 | 2.0 | 2.0 | 0.00 | 0.00 | 0.00 | 43 | 1012.0 |
| 20260508234338 | 66 | 19 | 0.0 | 0.0 | 0.00 | 0.00 | 0.00 | 38 | 1011.8 |
| 20260508233837 | 66 | 19 | 0.0 | 0.0 | 0.00 | 0.00 | 0.00 | 38 | 1011.9 |
| 20260508233336 | 67 | 19 | 0.0 | 0.0 | 0.00 | 0.00 | 0.00 | 36 | 1011.8 |
| 20260508232832 | 67 | 19 | 0.0 | 0.0 | 0.00 | 0.00 | 0.00 | 36 | 1011.6 |
| 20260508232329 | 67 | 19 | 0.0 | 1.0 | 0.00 | 0.00 | 0.00 | 35 | 1011.7 |
| 20260508231827 | 68 | 19 | 2.0 | 2.0 | 0.00 | 0.00 | 0.00 | 34 | 1011.5 |
| 20260508231323 | 68 | 277 | 1.0 | 1.0 | 0.00 | 0.00 | 0.00 | 35 | 1011.6 |
| 20260508230820 | 67 | 277 | 2.0 | 3.0 | 0.00 | 0.00 | 0.00 | 34 | 1011.6 |
| 20260508230316 | 67 | 283 | 4.0 | 6.0 | 0.00 | 0.00 | 0.00 | 33 | 1011.6 |
| 20260508225814 | 68 | 322 | 4.0 | 4.0 | 0.00 | 0.00 | 0.00 | 34 | 1011.7 |
| 20260508225310 | 68 | 320 | 8.0 | 13.0 | 0.00 | 0.00 | 0.00 | 32 | 1011.5 |
| 20260508224808 | 68 | 282 | 6.0 | 8.0 | 0.00 | 0.00 | 0.00 | 33 | 1011.8 |
| 20260508224306 | 69 | 257 | 4.0 | 6.0 | 0.00 | 0.00 | 0.00 | 34 | 1011.7 |
| 20260508223803 | 69 | 281 | 4.0 | 4.0 | 0.00 | 0.00 | 0.00 | 34 | 1011.7 |
| 20260508223300 | 69 | 281 | 1.0 | 1.0 | 0.00 | 0.00 | 0.00 | 35 | 1011.9 |
| 20260508222758 | 69 | 320 | 6.0 | 7.0 | 0.00 | 0.00 | 0.00 | 33 | 1011.7 |
| 20260508222255 | 69 | 352 | 6.0 | 9.0 | 0.00 | 0.00 | 0.00 | 32 | 1011.7 |
| 20260508221751 | 68 | 274 | 2.0 | 3.0 | 0.00 | 0.00 | 0.00 | 35 | 1011.8 |
| 20260508221247 | 67 | 311 | 6.0 | 7.0 | 0.00 | 0.00 | 0.00 | 34 | 1011.7 |
| 20260508220743 | 67 | 309 | 2.0 | 4.0 | 0.00 | 0.00 | 0.00 | 35 | 1011.8 |
| 20260508220240 | 67 | 313 | 3.0 | 4.0 | 0.00 | 0.00 | 0.00 | 35 | 1011.9 |
| 20260508215736 | 67 | 338 | 6.0 | 7.0 | 0.00 | 0.00 | 0.00 | 34 | 1011.7 |
| 20260508215233 | 69 | 264 | 3.0 | 4.0 | 0.00 | 0.00 | 0.00 | 33 | 1011.9 |
| 20260508214730 | 68 | 326 | 5.0 | 7.0 | 0.00 | 0.00 | 0.00 | 34 | 1011.7 |
| 20260508214228 | 68 | 326 | 5.0 | 7.0 | 0.00 | 0.00 | 0.00 | 34 | 1012.0 |
| 20260508213724 | 69 | 36 | 3.0 | 4.0 | 0.00 | 0.00 | 0.00 | 33 | 1011.8 |
| 20260508213220 | 68 | 320 | 4.0 | 6.0 | 0.00 | 0.00 | 0.00 | 33 | 1012.2 |
| 20260508212717 | 69 | 285 | 4.0 | 6.0 | 0.00 | 0.00 | 0.00 | 34 | 1012.0 |
| 20260508212214 | 66 | 319 | 5.0 | 7.0 | 0.00 | 0.00 | 0.00 | 34 | 1012.2 |
| 20260508211709 | 68 | 264 | 9.0 | 10.0 | 0.00 | 0.00 | 0.00 | 32 | 1011.8 |
| 20260508211205 | 69 | 313 | 9.0 | 10.0 | 0.00 | 0.00 | 0.00 | 32 | 1012.2 |
| 20260508210703 | 69 | 211 | 4.0 | 4.0 | 0.00 | 0.00 | 0.00 | 35 | 1012.3 |
| 20260508210200 | 69 | 247 | 7.0 | 8.0 | 0.00 | 0.00 | 0.00 | 31 | 1012.3 |
| 20260508205656 | 68 | 324 | 3.0 | 7.0 | 0.00 | 0.00 | 0.00 | 34 | 1012.4 |
| 20260508205153 | 69 | 278 | 10.0 | 13.0 | 0.00 | 0.00 | 0.00 | 32 | 1012.5 |
| 20260508204649 | 70 | 320 | 8.0 | 9.0 | 0.00 | 0.00 | 0.00 | 33 | 1012.4 |
| 20260508204145 | 69 | 225 | 3.0 | 7.0 | 0.00 | 0.00 | 0.00 | 33 | 1012.3 |
| 20260508203642 | 70 | 66 | 2.0 | 2.0 | 0.00 | 0.00 | 0.00 | 32 | 1012.5 |
| 20260508203138 | 67 | 293 | 3.0 | 8.0 | 0.00 | 0.00 | 0.00 | 34 | 1012.7 |
| 20260508202634 | 67 | 228 | 4.0 | 6.0 | 0.00 | 0.00 | 0.00 | 35 | 1012.7 |
| 20260508202131 | 67 | 354 | 2.0 | 6.0 | 0.00 | 0.00 | 0.00 | 34 | 1012.6 |
| 20260508201628 | 67 | 285 | 4.0 | 9.0 | 0.00 | 0.00 | 0.00 | 34 | 1012.7 |
| 20260508201125 | 67 | 353 | 3.0 | 4.0 | 0.00 | 0.00 | 0.00 | 34 | 1012.6 |
| 20260508200622 | 66 | 221 | 3.0 | 4.0 | 0.00 | 0.00 | 0.00 | 35 | 1012.7 |
| 20260508200117 | 66 | 346 | 6.0 | 10.0 | 0.00 | 0.00 | 0.00 | 35 | 1012.7 |
| 20260508195614 | 67 | 252 | 5.0 | 8.0 | 0.00 | 0.00 | 0.00 | 34 | 1012.8 |
| 20260508195111 | 66 | 342 | 6.0 | 11.0 | 0.00 | 0.00 | 0.00 | 33 | 1012.8 |
| 20260508194607 | 67 | 41 | 5.0 | 8.0 | 0.00 | 0.00 | 0.00 | 33 | 1013.1 |
| 20260508194105 | 68 | 293 | 5.0 | 9.0 | 0.00 | 0.00 | 0.00 | 32 | 1012.9 |
| 20260508193601 | 69 | 293 | 5.0 | 8.0 | 0.00 | 0.00 | 0.00 | 31 | 1013.1 |
| 20260508193058 | 67 | 280 | 3.0 | 8.0 | 0.00 | 0.00 | 0.00 | 32 | 1013.2 |
| 20260508192555 | 68 | 280 | 6.0 | 10.0 | 0.00 | 0.00 | 0.00 | 34 | 1013.3 |
| 20260508192052 | 68 | 247 | 10.0 | 11.0 | 0.00 | 0.00 | 0.00 | 33 | 1013.3 |
| 20260508191548 | 67 | 357 | 10.0 | 19.0 | 0.00 | 0.00 | 0.00 | 32 | 1013.1 |
| 20260508191045 | 68 | 103 | 2.0 | 2.0 | 0.00 | 0.00 | 0.00 | 32 | 1013.2 |
| 20260508190542 | 66 | 304 | 4.0 | 6.0 | 0.00 | 0.00 | 0.00 | 34 | 1013.6 |
| 20260508190039 | 65 | 318 | 8.0 | 14.0 | 0.00 | 0.00 | 0.00 | 32 | 1013.6 |